timestamp,surface_pressure_avg,surface_temp_avg,battery_voltage,lat,long
2021-07-02 00:09:01+00:00,224.8581,13.88,12.81,47.84626,-54.09684
2021-07-02 00:19:01+00:00,227.6181,13.88,12.73,47.84626,-54.09684
2021-07-02 00:29:01+00:00,227.8781,13.88,12.73,47.84626,-54.09684
2021-07-02 00:39:01+00:00,223.1714,13.87,12.73,47.84626,-54.09684
2021-07-02 00:49:01+00:00,224.3447,13.8,12.73,47.84626,-54.09684
2021-07-02 00:59:01+00:00,230.4614,13.84,12.73,47.84626,-54.09684
2021-07-02 01:09:01+00:00,230.6398,13.87,12.73,47.84626,-54.09684
2021-07-02 01:19:01+00:00,228.9965,13.88,12.65,47.84626,-54.09684
2021-07-02 01:29:01+00:00,230.7331,13.88,12.65,47.84626,-54.09684
2021-07-02 01:39:01+00:00,233.9465,13.89,12.65,47.84626,-54.09684
2021-07-02 01:49:01+00:00,234.9881,13.89,12.65,47.84626,-54.09684
2021-07-02 01:59:01+00:00,238.6947,13.89,12.65,47.84626,-54.09684
2021-07-02 02:09:01+00:00,244.2647,13.89,12.65,47.84626,-54.09684
2021-07-02 02:19:00+00:00,247.1131,13.87,12.65,47.84626,-54.09684
2021-07-02 02:29:00+00:00,250.8631,13.86,12.65,47.84626,-54.09684
2021-07-02 02:39:00+00:00,262.3681,13.85,12.65,47.84626,-54.09684
2021-07-02 02:49:00+00:00,270.8847,13.87,12.65,47.84626,-54.09684
2021-07-02 02:59:00+00:00,274.7447,13.4,12.65,47.84626,-54.09684
2021-07-02 03:09:00+00:00,273.5731,13.3,12.65,47.84626,-54.09684
2021-07-02 03:19:01+00:00,282.4164,13.74,12.65,47.84626,-54.09684
2021-07-02 03:29:01+00:00,291.5747,13.8,12.65,47.84626,-54.09684
2021-07-02 03:39:01+00:00,295.8164,13.8,12.65,47.84626,-54.09684
2021-07-02 03:49:01+00:00,296.093,13.8,12.65,47.84626,-54.09684
2021-07-02 03:59:01+00:00,305.5264,13.8,12.65,47.84626,-54.09684
2021-07-02 04:09:01+00:00,314.8464,13.8,12.65,47.84626,-54.09684
2021-07-02 04:19:01+00:00,313.283,13.8,12.57,47.84626,-54.09684
2021-07-02 04:29:01+00:00,313.1996,13.8,12.57,47.84626,-54.09684
2021-07-02 04:39:01+00:00,319.243,13.74,12.57,47.84626,-54.09684
2021-07-02 04:49:01+00:00,321.5096,13.7,12.57,47.84626,-54.09684
2021-07-02 04:59:01+00:00,314.5746,13.7,12.57,47.84626,-54.09684
2021-07-02 05:09:01+00:00,318.0997,13.7,12.57,47.84626,-54.09684
2021-07-02 05:19:01+00:00,321.2047,13.58,12.57,47.84626,-54.09684
2021-07-02 05:29:01+00:00,316.0046,13.5,12.57,47.84626,-54.09684
2021-07-02 05:39:01+00:00,314.558,13.5,12.57,47.84626,-54.09684
2021-07-02 05:49:01+00:00,321.963,13.5,12.57,47.84626,-54.09684
2021-07-02 05:59:01+00:00,323.6947,13.49,12.57,47.84626,-54.09684
2021-07-02 06:09:01+00:00,321.2963,13.48,12.57,47.84626,-54.09684
2021-07-02 06:19:01+00:00,322.2413,13.47,12.57,47.84626,-54.09684
2021-07-02 06:29:01+00:00,325.2747,13.4,12.57,47.84626,-54.09684
2021-07-02 06:39:01+00:00,321.8979,13.4,12.57,47.84626,-54.09684
2021-07-02 06:49:01+00:00,320.5914,13.4,12.57,47.84626,-54.09684
2021-07-02 06:59:01+00:00,317.168,13.4,12.57,47.84626,-54.09684
2021-07-02 07:09:01+00:00,307.4397,13.4,12.57,47.84626,-54.09684
2021-07-02 07:19:01+00:00,304.3964,13.4,12.57,47.84626,-54.09684
2021-07-02 07:29:01+00:00,307.648,13.4,12.57,47.84626,-54.09684
2021-07-02 07:39:01+00:00,301.933,13.4,12.57,47.84626,-54.09684
2021-07-02 07:49:01+00:00,291.5397,13.4,12.57,47.84626,-54.09684
2021-07-02 07:59:01+00:00,289.0214,13.4,12.57,47.84626,-54.09684
2021-07-02 08:09:01+00:00,290.2563,13.4,12.57,47.84626,-54.09684
2021-07-02 08:19:01+00:00,276.8964,13.4,12.57,47.84626,-54.09684
2021-07-02 08:29:01+00:00,265.7914,13.4,12.57,47.84626,-54.09684
2021-07-02 08:39:01+00:00,264.8148,13.38,12.57,47.84626,-54.09684
2021-07-02 08:49:01+00:00,261.8281,13.3,12.57,47.84626,-54.09684
2021-07-02 08:59:01+00:00,252.8747,13.3,12.57,47.84626,-54.09684
2021-07-02 09:09:01+00:00,244.4732,13.3,12.57,47.84626,-54.09684
2021-07-02 09:19:01+00:00,238.3331,13.34,12.57,47.84626,-54.09684
2021-07-02 09:29:01+00:00,228.4547,13.3,12.57,47.84626,-54.09684
2021-07-02 09:39:01+00:00,222.2247,13.3,12.57,47.84626,-54.09684
2021-07-02 09:49:01+00:00,221.1648,13.3,12.57,47.84626,-54.09684
2021-07-02 09:59:01+00:00,220.6764,13.34,12.57,47.84626,-54.09684
2021-07-02 10:09:01+00:00,211.2347,13.34,12.57,47.84626,-54.09684
2021-07-02 10:19:01+00:00,204.7848,13.38,12.57,47.84626,-54.09684
2021-07-02 10:29:01+00:00,211.5448,13.39,12.57,47.84626,-54.09684
2021-07-02 10:39:01+00:00,215.0214,13.39,12.57,47.84626,-54.09684
2021-07-02 10:49:01+00:00,204.2064,13.4,12.57,47.84626,-54.09684
2021-07-02 10:59:01+00:00,201.8948,13.4,12.57,47.84626,-54.09684
2021-07-02 11:09:01+00:00,212.7464,13.39,12.57,47.84626,-54.09684
2021-07-02 11:19:01+00:00,212.6564,13.37,12.65,47.84626,-54.09684
2021-07-02 11:29:01+00:00,210.7381,13.37,12.65,47.84626,-54.09684
2021-07-02 11:39:01+00:00,217.8831,13.34,12.65,47.84626,-54.09684
2021-07-02 11:49:01+00:00,219.4098,13.33,12.65,47.84626,-54.09684
2021-07-02 11:59:01+00:00,213.2231,13.3,12.65,47.84626,-54.09684
2021-07-02 12:09:01+00:00,215.9564,13.3,12.65,47.84626,-54.09684
2021-07-02 12:19:01+00:00,222.8398,13.3,12.73,47.84626,-54.09684
2021-07-02 12:29:01+00:00,226.2581,13.3,12.73,47.84626,-54.09684
2021-07-02 12:39:01+00:00,226.6497,13.3,12.73,47.84626,-54.09684
2021-07-02 12:49:01+00:00,225.3798,13.26,12.73,47.84626,-54.09684
2021-07-02 12:59:01+00:00,227.8914,13.1,12.73,47.84626,-54.09684
2021-07-02 13:09:01+00:00,234.6014,13.17,12.73,47.84626,-54.09684
2021-07-02 13:19:01+00:00,235.9914,13.2,12.97,47.84626,-54.09684
2021-07-02 13:29:01+00:00,235.4198,13.2,12.97,47.84626,-54.09684
2021-07-02 13:39:01+00:00,236.5531,13.2,12.97,47.84626,-54.09684
2021-07-02 13:49:01+00:00,244.0847,13.2,12.97,47.84626,-54.09684
2021-07-02 13:59:01+00:00,244.5397,13.1,12.97,47.84626,-54.09684
2021-07-02 14:09:01+00:00,239.9414,13.08,12.97,47.84626,-54.09684
2021-07-02 14:19:01+00:00,239.7714,13.1,13.21,47.84626,-54.09684
2021-07-02 14:29:01+00:00,241.9866,13.1,13.21,47.84626,-54.09684
2021-07-02 14:39:01+00:00,242.5431,13.07,13.21,47.84626,-54.09684
2021-07-02 14:49:01+00:00,250.5297,13.08,13.21,47.84626,-54.09684
2021-07-02 14:59:01+00:00,257.2981,13.18,13.21,47.84626,-54.09684
2021-07-02 15:09:01+00:00,254.8147,13.2,13.21,47.84626,-54.09684
2021-07-02 15:19:01+00:00,258.4948,13.2,13.44,47.84626,-54.09684
2021-07-02 15:29:01+00:00,273.1031,13.2,13.44,47.84626,-54.09684
2021-07-02 15:39:01+00:00,283.6496,12.9,13.44,47.84626,-54.09684
2021-07-02 15:49:01+00:00,280.6013,12.9,13.44,47.84626,-54.09684
2021-07-02 15:59:01+00:00,287.113,12.9,13.44,47.84626,-54.09684
2021-07-02 16:09:01+00:00,291.7465,12.9,13.44,47.84626,-54.09684
2021-07-02 16:19:01+00:00,292.3963,12.9,13.6,47.84626,-54.09684
2021-07-02 16:29:01+00:00,294.693,12.9,13.6,47.84626,-54.09684
2021-07-02 16:39:01+00:00,303.268,12.9,13.6,47.84626,-54.09684
2021-07-02 16:49:01+00:00,305.3931,12.9,13.6,47.84626,-54.09684
2021-07-02 16:59:01+00:00,302.6663,12.9,13.6,47.84626,-54.09684
2021-07-02 17:09:01+00:00,306.9797,12.9,13.6,47.84626,-54.09684
2021-07-02 17:19:00+00:00,310.2296,12.79,13.6,47.84626,-54.09684
2021-07-02 17:29:00+00:00,312.108,12.78,13.6,47.84626,-54.09684
2021-07-02 17:39:00+00:00,311.5247,12.79,13.6,47.84626,-54.09684
2021-07-02 17:49:00+00:00,305.8047,12.79,13.6,47.84626,-54.09684
2021-07-02 17:59:00+00:00,309.0214,12.79,13.6,47.84626,-54.09684
2021-07-02 18:09:00+00:00,309.8713,12.78,13.6,47.84626,-54.09684
2021-07-02 18:19:01+00:00,310.8615,12.78,13.6,47.84626,-54.09684
2021-07-02 18:29:01+00:00,305.21299999999997,12.78,13.6,47.84626,-54.09684
2021-07-02 18:39:01+00:00,308.5663,12.75,13.6,47.84626,-54.09684
2021-07-02 18:49:01+00:00,309.5464,12.76,13.6,47.84626,-54.09684
2021-07-02 18:59:01+00:00,312.403,12.79,13.6,47.84626,-54.09684
2021-07-02 19:09:01+00:00,308.6281,12.8,13.6,47.84626,-54.09684
2021-07-02 19:19:01+00:00,314.988,12.8,13.68,47.84626,-54.09684
2021-07-02 19:29:01+00:00,313.3196,12.81,13.68,47.84626,-54.09684
2021-07-02 19:39:01+00:00,309.6313,12.8,13.68,47.84626,-54.09684
2021-07-02 19:49:01+00:00,305.513,12.77,13.68,47.84626,-54.09684
2021-07-02 19:59:01+00:00,308.938,12.79,13.68,47.84626,-54.09684
2021-07-02 20:09:01+00:00,297.413,12.8,13.68,47.84626,-54.09684
2021-07-02 20:19:01+00:00,286.3831,12.9,13.76,47.84626,-54.09684
2021-07-02 20:29:01+00:00,281.7297,12.7,13.76,47.84626,-54.09684
2021-07-02 20:39:01+00:00,276.5831,12.5,13.76,47.84626,-54.09684
2021-07-02 20:49:01+00:00,262.7314,12.7,13.76,47.84626,-54.09684
2021-07-02 20:59:01+00:00,255.8181,12.74,13.76,47.84626,-54.09684
2021-07-02 21:09:01+00:00,254.3181,12.8,13.76,47.84626,-54.09684
2021-07-02 21:19:00+00:00,255.8048,12.8,13.6,47.84626,-54.09684
2021-07-02 21:29:00+00:00,253.9064,12.8,13.6,47.84626,-54.09684
2021-07-02 21:39:00+00:00,251.7198,12.85,13.6,47.84626,-54.09684
2021-07-02 21:49:00+00:00,241.6714,12.9,13.6,47.84626,-54.09684
2021-07-02 21:59:00+00:00,231.7914,12.93,13.6,47.84626,-54.09684
2021-07-02 22:09:00+00:00,227.2298,12.9,13.6,47.84626,-54.09684
2021-07-02 22:19:01+00:00,228.8265,12.8,13.29,47.84626,-54.09684
2021-07-02 22:29:01+00:00,224.8781,12.88,13.29,47.84626,-54.09684
2021-07-02 22:39:01+00:00,211.3698,12.9,13.29,47.84626,-54.09684
2021-07-02 22:49:01+00:00,206.5598,12.97,13.29,47.84626,-54.09684
2021-07-02 22:59:01+00:00,211.6097,12.99,13.29,47.84626,-54.09684
2021-07-02 23:09:01+00:00,211.2831,13.0,13.29,47.84626,-54.09684
2021-07-02 23:19:01+00:00,214.0114,13.0,12.97,47.84626,-54.09684
2021-07-02 23:29:01+00:00,219.2615,13.0,12.97,47.84626,-54.09684
2021-07-02 23:39:01+00:00,218.5131,13.0,12.97,47.84626,-54.09684
2021-07-02 23:49:01+00:00,216.8148,12.9,12.97,47.84626,-54.09684
2021-07-02 23:59:01+00:00,217.4448,12.9,12.97,47.84626,-54.09684
